Change the Weather History Date:

Saturday, December 28, 2013

  Actual Average Record
Temperature  
Mean Temperature 31 °F -  
Max Temperature 39 °F 36 °F 58 °F (1980)
Min Temperature 23 °F 20 °F -6 °F (1985)
Degree Days  
Heating Degree Days 34 37  
Month to date heating degree days 1099 1019  
Since 1 July heating degree days 2455 2457  
Cooling Degree Days 0 0  
Month to date cooling degree days 0 0  
Year to date cooling degree days 1138 680  
Moisture  
Dew Point 22 °F    
Average Humidity 68    
Maximum Humidity 81    
Minimum Humidity 54    
Precipitation  
Precipitation 0.00 in 0.04 in 0.34 in (2008)
Month to date precipitation 0.12 1.17  
Year to date precipitation 4.58 10.60  
Sea Level Pressure  
Sea Level Pressure 30.25 in    
Wind  
Wind Speed 14 mph (SW)    
Max Wind Speed 25 mph    
Max Gust Speed 31 mph    
Visibility 10 miles    
Events      
T = Trace of Precipitation, MM = Missing Value Source: NWS Daily Summary

Daily Weather History Graph

Daily Weather History Graph

Search for Another Location

Airport or City:

Trip Planner

Search our weather history database for the weather conditions in past years. The results will help you decide how hot, cold, wet, or windy it might be!

Date:

Astronomy

Dec. 28, 2013 Rise Set
Actual Time 8:06 AM MST 5:12 PM MST
Civil Twilight 7:34 AM MST 5:44 PM MST
Nautical Twilight 6:59 AM MST 6:20 PM MST
Astronomical Twilight 6:25 AM MST 6:54 PM MST
Moon 3:45 AM MST (12/28) 2:08 PM MST (12/28)
Length of Visible Light 10h 09m
Length of Day
9h 05m
Waning Crescent, 18% of the Moon is Illuminated
Dec 28
Waning Crescent
Jan 1
New
Jan 7
First Quarter
Jan 15
Full
Jan 23
Last Quarter

Hourly Weather History & Observations

Time (MST) Temp. Windchill Dew Point Humidity Pressure Visibility Wind Dir Wind Speed Gust Speed Precip Events Conditions
12:53 AM 32.0 °F 23.6 °F 21.0 °F 64% 30.16 in 10.0 mi SW 10.4 mph - N/A   Clear
1:53 AM 30.0 °F 21.7 °F 21.0 °F 69% 30.15 in 10.0 mi SW 9.2 mph - N/A   Clear
2:53 AM 30.0 °F 21.7 °F 21.0 °F 69% 30.14 in 10.0 mi SW 9.2 mph - N/A   Clear
3:53 AM 25.0 °F 15.5 °F 19.9 °F 81% 30.16 in 10.0 mi WSW 9.2 mph - N/A   Clear
4:53 AM 24.1 °F 13.7 °F 19.0 °F 81% 30.19 in 10.0 mi SW 10.4 mph - N/A   Clear
5:53 AM 27.0 °F 14.3 °F 19.9 °F 75% 30.17 in 10.0 mi South 17.3 mph - N/A   Clear
6:53 AM 30.0 °F 20.0 °F 19.0 °F 64% 30.19 in 10.0 mi SSW 12.7 mph - N/A   Clear
7:53 AM 30.9 °F 21.2 °F 21.0 °F 67% 30.21 in 10.0 mi SW 12.7 mph - N/A   Clear
8:53 AM 32.0 °F 22.1 °F 21.9 °F 66% 30.23 in 10.0 mi WSW 13.8 mph 23.0 mph N/A   Overcast
9:53 AM 33.1 °F 22.2 °F 21.9 °F 64% 30.22 in 10.0 mi West 17.3 mph 25.3 mph N/A   Partly Cloudy
10:53 AM 36.0 °F 25.0 °F 23.0 °F 59% 30.24 in 10.0 mi West 20.7 mph 31.1 mph N/A   Clear
11:53 AM 36.0 °F 24.7 °F 23.0 °F 59% 30.25 in 10.0 mi West 21.9 mph 27.6 mph N/A   Clear
12:53 PM 37.0 °F 27.4 °F 23.0 °F 57% 30.23 in 10.0 mi WNW 17.3 mph 25.3 mph N/A   Clear
1:53 PM 37.0 °F 27.0 °F 24.1 °F 59% 30.24 in 10.0 mi West 18.4 mph 25.3 mph N/A   Clear
2:53 PM 37.9 °F 29.6 °F 25.0 °F 60% 30.25 in 10.0 mi WSW 13.8 mph - N/A   Partly Cloudy
3:53 PM 37.0 °F 27.0 °F 24.1 °F 59% 30.27 in 10.0 mi WSW 18.4 mph 23.0 mph N/A   Clear
4:53 PM 34.0 °F 26.0 °F 24.1 °F 67% 30.30 in 10.0 mi WSW 10.4 mph - N/A   Clear
5:53 PM 33.1 °F 23.9 °F 24.1 °F 70% 30.31 in 10.0 mi SW 12.7 mph - N/A   Clear
6:53 PM 32.0 °F 22.5 °F 23.0 °F 69% 30.32 in 10.0 mi SW 12.7 mph - N/A   Clear
7:53 PM 30.0 °F 21.1 °F 21.9 °F 72% 30.33 in 10.0 mi SSW 10.4 mph - N/A   Clear
8:53 PM 30.9 °F 22.2 °F 21.9 °F 69% 30.33 in 10.0 mi SW 10.4 mph - N/A   Clear
9:53 PM 30.0 °F 21.1 °F 21.0 °F 69% 30.34 in 10.0 mi SSW 10.4 mph - N/A   Clear
10:53 PM 28.9 °F 18.2 °F 21.0 °F 72% 30.35 in 10.0 mi SW 13.8 mph - N/A   Clear
11:53 PM 28.9 °F 18.6 °F 19.9 °F 69% 30.36 in 10.0 mi SW 12.7 mph - N/A   Clear